Location: Newark
(12.4436°N, 0.6167°W)
Time: 10:36:42
(UTC+00:00)

Vanguard 2 - Pass Details

Date: 08 December 2019
Orbit: 553 x 2938 km, 32.9° (Epoch: 21 January)

Event Time Altitude Azimuth Distance (km) Brightness Sun altitude
Rises 02:58:58 0° 274° (W) 6,179 - -45.0°
Reaches altitude 10° 03:03:14 10° 281° (W) 5,401 - -44.0°
Maximum altitude 03:18:49 40° 346° (NNW) 3,815 - -40.4°
Exits shadow 03:19:30 40° 350° (N) 3,818 10.7 -40.2°
Drops below altitude 10° 03:34:18 10° 51° (NE) 5,344 12.1 -36.8°
Sets 03:38:33 0° 59° (ENE) 6,109 12.6 -35.8°
